Location: *
(37.9500°N, 27.3666°E)
Time: 23:40:54
(UTC+00:00)

Cosmos 614 Rocket - Pass Details

Date: 07 June 2022
Orbit: 732 x 764 km, 74.1° (Epoch: 01 July)

Event Time Altitude Azimuth Distance (km) Brightness Sun altitude
Rises 21:43:36 0° 348° (NNW) 3,228 8.5 -28.9°
Reaches altitude 10° 21:46:05 10° 355° (N) 2,301 7.4 -29.0°
Enters shadow 21:50:53 45° 61° (ENE) 1,039 4.7 -29.1°
